Regional Weather Roundup
Issued by NWS

Home | Current Version | Previous Version | Graphics & Text | Print | Product List | Glossary On
Versions: 1 2 3 4 5 6 7 8 9 10 11 12 13 14 15 16 17 18 19 20 21 22 23 24 25 26 27 28 29 30 31 32 33 34 35 36 37 38 39 40 41 42 43 44 45 46 47 48 49 50
000
ASUS43 KBIS 191502
RWRND

NORTH DAKOTA REGIONAL WEATHER ROUNDUP
NATIONAL WEATHER SERVICE BISMARCK ND
900 AM CST SUN FEB 19 2017

NOTE: "FAIR" INDICATES FEW OR NO CLOUDS BELOW 12,000 FEET WITH NO
SIGNIFICANT WEATHER AND/OR OBSTRUCTIONS TO VISIBILITY.


NDZ001>003-009>011-017-191600-
NORTHWEST NORTH DAKOTA

CITY           SKY/WX    TMP DP  RH WIND       PRES   REMARKS
WILLISTON      CLOUDY    33  31  92 E6        29.55F
MINOT          CLOUDY    35  32  88 E10       29.61F
$$

NDZ018>021-031>035-040>046-191600-
SOUTHWEST NORTH DAKOTA

CITY           SKY/WX    TMP DP  RH WIND       PRES   REMARKS
BISMARCK       FAIR      36  33  89 E8        29.59F
DICKINSON      FOG       29  28  96 E9        29.50F VSB 1/4
GARRISON         N/A     33  32  96 E6        29.58R
HETTINGER ARPT CLOUDY    32  28  85 E3        29.54S
$$

NDZ004>008-012>016-024-026-027-054-191600-
NORTHEAST NORTH DAKOTA

CITY           SKY/WX    TMP DP  RH WIND       PRES   REMARKS
GRAND FORKS    CLOUDY    38  31  76 SE16      29.76F
GRND FRKS AFB  MOSUNNY   36  33  90 SE8       29.76F
DEVILS LAKE    CLOUDY    35  33  92 E16       29.70S
$$

NDZ022-023-025-028>030-036>039-047>053-191600-
SOUTHEAST NORTH DAKOTA

CITY           SKY/WX    TMP DP  RH WIND       PRES   REMARKS
FARGO          MOSUNNY   43  38  82 SE14      29.76F
JAMESTOWN      FAIR      36  34  92 SE9       29.67F
$$





USA.gov is the U.S. government's official web portal to all federal, state and local government web resources and services.